Regional Weather Roundup
Issued by NWS San Angelo, TX

Home | Current Version | Previous Version | Text Only | Print | Product List | Glossary On
Versions: 1 2 3 4 5 6 7 8 9 10 11 12 13 14 15 16 17 18 19 20 21 22 23 24 25 26 27 28 29 30 31 32 33 34 35 36 37 38 39 40 41 42 43 44 45 46 47 48 49 50
000
ASUS44 KSJT 231110
RWRSJT
WEST CENTRAL TEXAS REGIONAL WEATHER ROUNDUP
NATIONAL WEATHER SERVICE SAN ANGELO TX
600 AM CDT SAT MAY 23 2015

NOTE: "FAIR" INDICATES FEW OR NO CLOUDS BELOW 12,000 FEET WITH NO
SIGNIFICANT WEATHER AND/OR OBSTRUCTIONS TO VISIBILITY.

TXZ049-054-064>066-071>073-076>078-098-099-113-114-127-128-139-140-
154-155-168>170-231200
...LOCATIONS ACROSS WEST CENTRAL TEXAS...

CITY           SKY/WX    TMP DP  RH WIND       PRES   REMARKS
SAN ANGELO     CLOUDY    74  68  81 SE8       29.97S
ABILENE        MOCLDY    72  68  87 SE20G25   30.02R
DYESS AFB      CLOUDY    72  64  76 S10       30.00R
JUNCTION       LGT RAIN  71  67  87 SE9       29.98F
SWEETWATER     CLOUDY    72  69  92 SE17      30.03R
BROWNWOOD      CLOUDY    72  70  94 SE16      30.04F
COLEMAN        CLOUDY    71  70  96 SE15      30.03S
SONORA         CLOUDY    72  64  78 S10G17    30.05R
OZONA          FAIR      72  66  83 S14G21    30.03R
BRADY          PTCLDY    72  70  94 SE14      30.03F
$$

TEXAS PANHANDLE/OKLAHOMA PANHANDLE

CITY           SKY/WX    TMP DP  RH WIND       PRES   REMARKS
AMARILLO       TSTM      51  51 100 N13       30.07R FOG
BORGER         TSTM      55  52  89 SW23G30   30.06R FOG
CANADIAN       CLOUDY    58  57  97 SE8       30.03R
DALHART        TSTM      55  52  89 NE14      30.03F FOG
DUMAS          LGT RAIN  54  52  94 NW20G26   30.05R
GUYMON         NOT AVBL
HEREFORD       CLOUDY    54  53  98 MISG      30.03F
PAMPA          CLOUDY    55  54  98 SE14      30.01R VSB 3/4
PERRYTON       CLOUDY    55  54  96 SE15      30.02R VSB 3/4
$$

SOUTHERN PANHANDLE/SOUTH PLAINS/ROLLING PLAINS

CITY           SKY/WX    TMP DP  RH WIND       PRES   REMARKS
LUBBOCK        LGT RAIN  66  65  96 SE22      29.95F
SNYDER         CLOUDY    70  67  92 SE10      30.01R
CHILDRESS      FOG       61  61 100 SE12      30.01F VSB 1/4
SEMINOLE       PTSUNNY   65  64  97 SE10      29.96F
$$

PERMIAN BASIN

CITY           SKY/WX    TMP DP  RH WIND       PRES   REMARKS
MIDLAND        CLOUDY    68  64  87 SE8       29.95S
ODESSA         MOCLDY    67  63  87 SE8       29.95F
WINK           CLEAR     68  62  81 SE9       29.90F
$$

FAR WEST/SOUTHWEST MOUNTAINS/TRANS PECOS

CITY           SKY/WX    TMP DP  RH WIND       PRES   REMARKS
ALPINE         MOSUNNY   64  54  69 CALM      30.11S
DRYDEN           N/A     72  66  81 S9        29.93F
EL PASO        CLOUDY    69  24  18 N6        29.97R
FORT STOCKTON  CLOUDY    73  55  53 S20G28    29.93S
GUADALUPE PASS CLEAR     58  56  93 W12       30.06R
MARFA          MOCLDY    61  55  82 SE9       30.09F
PECOS          MOSUNNY   62  60  93 CALM      29.90F FOG
$$

DALLAS/FORT WORTH METROPLEX

CITY           SKY/WX    TMP DP  RH WIND       PRES   REMARKS
DFW AIRPORT    CLOUDY    68  67  96 SE8       30.08S
FTW MEACHAM    CLOUDY    71  69  93 SE14      30.07S FOG
DAL-EXECUTIVE  CLOUDY    69  67  93 SE9       30.09S FOG
GRAND PRAIRIE  CLOUDY    70  70 100 SE10      30.10S
ADDISON        CLOUDY    70  66  88 SE10      30.12R
MESQUITE       CLOUDY    68  66  94 SE8       30.10F
LANCASTER      CLOUDY    68  65  90 SE6       30.10F
$$

NORTH CENTRAL TEXAS

CITY           SKY/WX    TMP DP  RH WIND       PRES   REMARKS
SHRMAN/DENISON CLOUDY    65  65 100 E8        30.12S FOG
GAINESVILLE    CLOUDY    66  65  95 E9        30.11S
BRIDGEPORT     CLOUDY    67  67 100 SE5       30.08S FOG
DENTON         CLOUDY    69  67  93 SE10      30.08S
WAXAHACHIE     CLOUDY    69  69 100 SE6       30.11R FOG
GRANBURY         N/A     72  69  92 SE9       30.08R
$$

WESTERN NORTH TEXAS

CITY           SKY/WX    TMP DP  RH WIND       PRES   REMARKS
WICHITA FALLS  FOG       64  63  96 SE9       30.04S VSB 3/4
VERNON         CLOUDY    63  59  88 E7        30.04F VSB 1/4
BRECKENRIDGE   CLOUDY    73  70  91 SE10      30.03R
COMANCHE       CLOUDY    71  71 100 SE9       30.07R
$$

CENTRAL AND SOUTH CENTRAL TEXAS

CITY           SKY/WX    TMP DP  RH WIND       PRES   REMARKS
AUSTIN/BERGSTM CLOUDY    73  72  96 CALM      30.06F THUNDER
WACO           CLOUDY    71  69  93 SE10      30.08R FOG
HILLSBORO      LGT RAIN  70  68  92 SE10      30.09S
TEMPLE         CLOUDY    72  66  83 SE12      30.08R
KILLEEN-GRAY   CLOUDY    72  71  95 SE12      30.07R
FORT HOOD      CLOUDY    71  70  96 SE10      30.07R
GEORGETOWN     CLOUDY    73  72  94 S7        30.08R
LAGO VISTA     CLOUDY    73  71  94 SE5       30.10R THUNDER FOG
SAN MARCOS     CLOUDY    72  70  94 SE6       30.08S
NEW BRAUNFELS  CLOUDY    74  73  97 S6        30.05F FOG
RANDOLPH AFB   CLOUDY    73  73 100 SE9       30.06F
SAN ANTONIO    LGT RAIN  76  73  91 SE8       30.07R
STINSON        CLOUDY    75  73  93 SE7       30.05R THUNDER
PLEASANTON     NOT AVBL
LA GRANGE      CLOUDY    77  75  93 SE5       30.07R
GIDDINGS       RAIN      74  72  92 SE5       30.12R
$$

EAST TEXAS

CITY           SKY/WX    TMP DP  RH WIND       PRES   REMARKS
PARIS          PTCLDY    64  57  77 E13       30.15S
CLARKSVILLE    NOT AVBL
TYLER          CLOUDY    69  65  86 SE9       30.13F
LONGVIEW       PTCLDY    66  64  93 E6        30.15F
PALESTINE      CLOUDY    70  68  93 SE6       30.14R
NACOGDOCHES      N/A     66  63  88 E6        30.14F
$$

TEXAS HILL COUNTRY AND EDWARDS PLATEAU

CITY           SKY/WX    TMP DP  RH WIND       PRES   REMARKS
LLANO          CLOUDY    73  72  94 S7        30.09F
HORSESHOE BAY  PTSUNNY   73  70  93 SE6       30.08S THUNDER
KERRVILLE      CLOUDY    72  69  93 SE10      30.09S
FREDERICKSBRG  TSTM      71  69  93 SE6       30.09S
ROCKSPRINGS    CLOUDY    64  64 100 SE9       30.07S
HONDO          CLOUDY    74  72  93 SE9       30.06F
UVALDE         PTSUNNY   73  72  96 SE10      30.03S
DEL RIO        CLOUDY    76  73  91 SE14      29.98R
$$

SOUTHEAST TEXAS

CITY           SKY/WX    TMP DP  RH WIND       PRES   REMARKS
COLLEGE STN    CLOUDY    74  72  93 SE9       30.10R
CALDWELL       CLOUDY    72  72 100 MISG      30.12R FOG
CROCKETT       NOT AVBL
BRENHAM        CLOUDY    75  74  96 SE3       30.10S FOG
HUNTSVILLE     CLOUDY    73  70  90 VRB3      30.12R
CONROE         CLOUDY    72  69  90 E5        30.11S FOG
HOUSTON BUSH   MOCLDY    73  73 100 E8        30.09F FOG
HOUSTON HOBBY  MOCLDY    76  74  93 SE5       30.09S
PERLAND        MOCLDY    76  74  93 E5        30.10F
WHARTON        MOSUNNY   74  73  96 E5        30.08S FOG
$$

THE UPPER TEXAS COAST

CITY           SKY/WX    TMP DP  RH WIND       PRES   REMARKS
ORANGE         MOSUNNY   70  68  93 CALM      30.15R
PORT ARTHUR    MOCLDY    73  71  93 E6        30.12S
GALVESTON      MOCLDY    79  76  90 SE15      30.10F
ANGLETON       MOCLDY    74  74 100 SE9       30.08S
BAY CITY       PTSUNNY   77  76  99 SE7       30.07F
$$

TEXAS COASTAL BEND, RIO GRANDE PLAINS DEEP SOUTH TEXAS

CITY           SKY/WX    TMP DP  RH WIND       PRES   REMARKS
VICTORIA       MOCLDY    76  75  97 SE8       30.07R
BEEVILLE       FAIR      75  75 100 E5        30.04R FOG
ROCKPORT       MOCLDY    80  74  81 SE14G21   30.04R
PORT ARANSAS   CLOUDY    79  75  87 SE15      30.04R
PORT LAVACA    MOSUNNY   75  73  94 SE7       30.06R
CORPUS CHRISTI MOCLDY    78  74  87 SE10      30.03S
KINGSVILLE NAS MOCLDY    79  78  97 SE9       30.03R
COTULLA        CLOUDY    76  73  91 SE9       30.02R
LAREDO         CLOUDY    77  73  87 SE13      30.01S
BROWNSVILLE    PTCLDY    79  75  87 SE9       30.02R
PORT ISABEL    PTCLDY    79  75  87 SE12      30.02R
HEBBRONVILLE     N/A     76  73  92 SE13G18   30.03S
MCALLEN        PTCLDY    79  75  87 E9        30.02S
WESLACO        PTCLDY    77  74  90 SE5       30.02R
FALFURRIAS     MOSUNNY   76  74  94 SE6       30.02S
EDINBURG       MOSUNNY   78  74  90 SE5       30.03R FOG
$$


USA.gov is the U.S. government's official web portal to all federal, state and local government web resources and services.